Lander, WY

3:57 AM MST on December 03, 2016 (GMT -0700)
Hunt

Weather History for KLND - October, 2014

Change the Weather History Date:

Thursday, October 16, 2014

  Actual Average Record
Temperature  
Mean Temperature 50 °F 46 °F  
Max Temperature 62 °F 59 °F 83 °F (1991)
Min Temperature 37 °F 33 °F 14 °F (1930)
Degree Days  
Heating Degree Days 15 19  
Month to date heating degree days 198 265  
Since 1 July heating degree days 395 524  
Cooling Degree Days 0 0  
Month to date cooling degree days 0 0  
Year to date cooling degree days 445 472  
Growing Degree Days 1 (Base 50)    
Moisture  
Dew Point 21 °F    
Average Humidity 33    
Maximum Humidity 49    
Minimum Humidity 17    
Precipitation  
Precipitation 0.00 in 0.04 in 1.46 in (1994)
Month to date precipitation 0.50 0.72  
Year to date precipitation 9.31 10.65  
Snow  
Snow 0.00 in 0.30 in - ()
Month to date snowfall T 4.4  
Since 1 July snowfall T 7.1  
Since 1 September snowfall T 7.1  
Snow Depth 0.00 in    
Sea Level Pressure  
Sea Level Pressure 29.97 in    
Wind  
Wind Speed 7 mph (SSE)    
Max Wind Speed 17 mph    
Max Gust Speed 20 mph    
Visibility 10 miles    
Events      
T = Trace of Precipitation, MM = Missing Value Source: NWS Daily Summary

Daily Weather History Graph

Daily Weather History Graph

Search for Another Location

Airport or City:

Trip Planner

Search our weather history database for the weather conditions in past years. The results will help you decide how hot, cold, wet, or windy it might be!

Date:

Astronomy

Oct. 16, 2014 Rise Set
Actual Time 7:29 AM MDT 6:30 PM MDT
Civil Twilight 7:00 AM MDT 6:59 PM MDT
Nautical Twilight 6:28 AM MDT 7:31 PM MDT
Astronomical Twilight 5:55 AM MDT 8:04 PM MDT
Moon 12:33 AM MDT (10/16) 2:52 PM MDT (10/16)
Length of Visible Light 11h 58m
Length of Day
11h 01m
Last Quarter, 41% of the Moon is Illuminated
Oct 16
Last Quarter
Oct 23
New
Oct 30
First Quarter
Nov 6
Full
Nov 14
Last Quarter

Hourly Weather History & Observations

Time (MDT) Temp. Windchill Dew Point Humidity Pressure Visibility Wind Dir Wind Speed Gust Speed Precip Events Conditions
12:53 AM 48.9 °F - 28.0 °F 44% 29.77 in 10.0 mi ENE 8.1 mph - N/A   Clear
1:53 AM 51.1 °F - 27.0 °F 39% 29.81 in 10.0 mi South 3.5 mph - N/A   Clear
2:53 AM 46.0 °F 40.2 °F 28.9 °F 51% 29.88 in 10.0 mi SE 12.7 mph - N/A   Clear
3:53 AM 45.0 °F 38.9 °F 19.9 °F 37% 29.91 in 10.0 mi SE 12.7 mph - N/A   Clear
4:53 AM 43.0 °F 37.7 °F 23.0 °F 45% 29.94 in 10.0 mi SE 9.2 mph - N/A   Clear
5:53 AM 44.6 °F 40.7 °F 21.2 °F 39% 30.07 in 10.0 mi SE 6.9 mph - N/A   Clear
6:53 AM 43.0 °F 39.5 °F 21.0 °F 42% 29.98 in 10.0 mi SSE 5.8 mph - N/A   Clear
7:53 AM 46.0 °F 40.2 °F 19.0 °F 34% 29.97 in 10.0 mi SSE 12.7 mph - N/A   Clear
8:53 AM 45.0 °F 39.3 °F 25.0 °F 46% 30.00 in 10.0 mi ESE 11.5 mph - N/A   Clear
9:53 AM 50.0 °F - 23.0 °F 35% 29.98 in 10.0 mi SE 10.4 mph - N/A   Clear
10:53 AM 52.0 °F - 21.0 °F 30% 29.99 in 10.0 mi ESE 5.8 mph - N/A   Clear
11:53 AM 55.9 °F - 18.0 °F 23% 29.99 in 10.0 mi ESE 6.9 mph - N/A   Clear
12:53 PM 57.0 °F - 17.1 °F 21% 30.00 in 10.0 mi SE 6.9 mph - N/A   Clear
1:53 PM 57.9 °F - 15.1 °F 19% 29.96 in 10.0 mi Variable 3.5 mph - N/A   Clear
2:53 PM 60.1 °F - 16.0 °F 18% 29.95 in 10.0 mi ESE 4.6 mph - N/A   Clear
3:53 PM 61.0 °F - 17.1 °F 18% 29.95 in 10.0 mi NNW 5.8 mph - N/A   Clear
4:53 PM 60.1 °F - 15.1 °F 17% 29.95 in 10.0 mi Calm Calm - N/A   Clear
5:53 PM 57.0 °F - 16.0 °F 20% 29.97 in 10.0 mi Calm Calm - N/A   Clear
6:53 PM 51.1 °F - 24.1 °F 35% 30.01 in 10.0 mi SW 4.6 mph - N/A   Clear
7:53 PM 48.9 °F - 23.0 °F 36% 30.03 in 10.0 mi WSW 5.8 mph - N/A   Clear
8:53 PM 44.1 °F 39.5 °F 24.1 °F 45% 30.08 in 10.0 mi West 8.1 mph - N/A   Clear
9:53 PM 43.0 °F 37.2 °F 23.0 °F 45% 30.06 in 10.0 mi West 10.4 mph - N/A   Clear
10:53 PM 41.0 °F 34.3 °F 21.9 °F 47% 30.07 in 10.0 mi WSW 11.5 mph - N/A   Clear
11:22 PM - - - N/A% - - Variable 5.8 mph - N/A   Scattered Clouds
11:53 PM 41.0 °F 34.3 °F 21.9 °F 47% 30.06 in 10.0 mi WSW 11.5 mph - N/A   Partly Cloudy